Temp
17 17 17 17 17 17 17 17 17 17 16 16 16 16 15 15 15 14 14 14 14 14 14 13 13 13 13 13 12 12 11 11 11 11 11 11 11 11 11 11 11 11
17 17 17 17 17 17 17 17 17 17 16 16 16 15 15 14 14 14 14 14 14 14 14 13 13 13 12 12 12 11 11 11 11 11 11 11 11 11 11 11 11 11
17 17 17 17 17 17 17 17 16 16 16 16 16 15 15 14 14 14 14 14 14 14 13 13 13 12 12 12 11 11 11 11 11 11 11 11 11 11 11 11 11 11
17 17 17 17 17 17 17 16 16 16 16 16 15 15 15 14 14 14 14 14 14 14 13 13 12 12 12 11 11 11 11 11 11 11 11 11 10 10 10 10 10 10
17 17 17 17 17 16 16 16 16 16 16 16 15 15 15 14 14 14 14 14 14 13 13 12 12 12 11 11 11 11 11 11 11 10 10 10 10 10 10 10 10 10
17 17 17 17 17 16 16 16 16 16 16 15 15 15 15 14 14 14 14 14 13 13 12 12 12 11 11 11 11 11 11 10 10 10 10 10 10 10 10 10 10 10
16 17 17 17 16 16 16 16 16 16 16 15 15 15 14 14 14 14 14 13 13 12 12 12 11 11 11 11 11 11 10 10 10 10 10 10 10 10 10 10 10 10
16 16 17 17 16 16 16 16 16 15 15 15 14 14 14 14 14 14 13 13 12 12 12 11 11 11 11 11 10 10 10 10 10 10 10 10 9 9 9 9 9 9
16 16 16 16 16 16 16 16 15 15 15 15 14 14 14 13 13 13 13 12 12 12 11 11 11 11 10 10 10 10 10 10 10 9 9 9 9 9 9 9 9 9
16 16 16 16 16 16 16 15 15 15 15 14 14 14 13 13 13 13 12 12 11 11 11 11 11 10 10 10 10 10 10 10 9 9 9 9 9 8 8 8 8 8
15 15 16 16 16 16 15 15 15 14 14 14 13 13 13 13 13 12 12 12 11 11 11 11 10 10 10 10 10 10 10 9 9 9 9 9 8 8 8 8 8 8
15 15 15 16 15 15 15 15 14 14 14 14 13 13 13 13 12 12 12 11 11 11 11 11 10 10 10 10 10 10 9 9 9 9 8 8 8 8 8 8 7 7
15 15 15 15 15 14 14 14 14 14 14 13 13 13 13 12 12 12 11 11 11 11 11 10 10 10 10 10 9 9 9 9 8 8 8 8 8 7 7 7 7 6
15 15 14 14 14 14 14 14 14 14 13 13 13 13 12 12 12 11 11 11 11 11 10 10 10 10 9 9 9 9 8 8 8 7 7 7 7 7 6 6 6 6
14 14 14 14 13 13 13 14 14 13 13 13 13 12 12 12 11 11 11 11 11 10 10 10 10 9 9 8 8 8 7 7 7 7 6 6 6 6 6 6 5 5
12 12 13 13 13 13 13 13 13 13 13 13 12 12 12 11 11 11 11 11 10 10 10 9 9 8 8 8 7 7 6 6 6 6 6 5 5 5 5 5 5 5
11 11 12 12 13 13 13 13 13 13 13 12 12 12 11 11 11 11 11 10 10 9 9 8 8 8 7 7 7 6 6 5 5 5 5 5 5 5 5 4 4 4
12 11 11 12 12 13 13 13 13 13 12 12 12 12 11 11 11 11 10 9 9 8 8 8 7 7 7 7 6 6 5 5 4 4 4 4 4 4 4 4 4 4
12 11 11 12 12 13 13 13 13 12 12 12 12 11 11 11 10 10 9 8 8 8 8 7 7 7 7 6 6 5 5 4 4 4 4 4 4 4 3 3 3 3
12 12 12 12 12 12 13 12 12 12 12 12 11 11 11 10 9 9 8 8 8 8 7 7 7 6 6 6 5 5 4 4 3 3 3 3 3 3 3 3 3 3
12 12 11 11 10 11 12 12 12 12 11 11 11 10 10 9 9 8 8 8 7 7 7 7 6 6 6 5 5 5 4 3 3 3 3 3 3 2 2 2 2 2
12 11 10 11 11 11 11 12 11 11 11 10 10 10 9 9 8 8 8 7 7 7 7 6 6 6 5 5 5 4 4 3 2 2 2 2 2 2 2 2 2 2
11 10 11 11 12 11 11 11 11 10 10 10 10 9 9 8 8 8 7 7 7 7 6 5 5 5 5 5 4 4 3 2 2 2 1 1 1 1 1 1 1 1
10 11 11 11 11 11 10 10 10 10 10 10 9 9 8 8 8 7 7 7 7 6 6 5 5 5 5 4 4 4 3 2 1 1 1 1 1 1 1 1 1 1
10 10 11 10 10 10 10 10 10 9 9 9 9 8 8 8 7 7 7 7 6 6 5 5 5 5 5 4 4 3 2 1 1 1 0 0 0 0 0 0 0 0
10 11 10 10 10 9 9 9 9 9 9 8 8 8 8 8 7 7 7 7 6 6 5 5 4 4 4 4 3 3 2 1 1 0 -0 -0 -0 -0 -0 -0 -0 -0
Height
799 801 802 803 805 806 807 808 809 810 811 812 813 814 814 815 816 816 817 818 818 818 819 819 818 818 818 817 817 816 816 816 816 816 816 815 815 815 815 815 815 815
798 799 801 802 803 805 806 807 808 809 810 811 812 813 813 814 815 815 816 816 817 817 817 817 817 817 817 817 817 817 816 816 816 815 815 815 815 814 814 814 814 814
796 797 799 800 801 803 804 805 807 808 809 810 811 812 812 813 814 814 815 815 815 816 816 816 816 816 816 816 816 816 816 816 816 815 815 814 814 814 813 813 813 812
794 795 796 798 799 801 803 804 805 806 807 808 809 811 811 812 813 813 814 814 814 814 814 814 814 814 815 815 815 815 815 815 815 815 815 814 814 813 813 812 812 812
791 793 794 796 797 799 801 802 803 804 805 807 808 809 810 811 812 812 813 813 814 814 814 814 814 813 813 813 813 814 814 813 814 813 813 813 813 813 813 812 811 811
789 790 792 793 795 797 798 799 801 802 803 805 807 808 809 809 810 811 812 813 813 813 813 813 813 813 813 813 813 813 812 812 812 812 811 812 812 812 812 811 810 810
786 787 789 790 792 794 795 797 798 800 801 803 805 806 807 808 809 810 811 812 812 812 813 813 813 813 813 812 812 812 812 811 811 811 810 810 810 810 810 810 809 808
783 784 786 787 789 790 792 793 795 797 799 801 802 804 805 806 808 809 810 811 811 811 812 812 812 812 812 812 811 811 811 811 810 810 809 809 808 808 808 807 807 806
780 782 783 784 785 786 788 789 792 794 796 798 800 802 803 805 806 807 808 809 810 810 811 811 811 811 811 811 811 810 810 810 809 809 808 808 807 807 806 806 805 804
778 779 780 781 782 782 784 786 788 791 793 796 798 799 801 803 804 805 806 807 808 808 809 809 810 810 810 810 810 809 809 809 808 808 807 807 806 806 805 805 804 803
775 776 777 777 778 779 780 783 785 788 791 793 795 797 799 801 802 803 804 805 806 806 807 808 808 809 809 809 809 808 808 807 807 807 806 806 805 805 804 804 803 802
771 772 773 773 775 776 778 781 783 786 788 791 793 795 797 799 800 801 802 803 804 805 805 806 807 807 807 807 807 807 806 806 806 805 805 804 803 803 802 801 801 800
767 767 769 771 773 775 777 779 781 783 786 789 791 793 795 797 798 799 801 801 802 803 804 805 805 806 806 806 806 805 805 804 804 803 802 801 801 800 799 799 798 797
763 764 766 768 771 774 776 778 780 782 784 787 789 791 793 794 796 797 799 799 800 801 802 803 804 804 804 804 804 804 803 802 802 801 800 799 798 797 796 795 795 794
759 760 762 765 768 771 774 777 779 781 784 786 788 790 791 793 794 796 797 797 798 799 800 801 802 802 803 803 803 802 801 800 800 799 797 796 795 794 793 792 791 791
762 762 762 762 765 768 771 774 777 780 782 785 787 789 790 791 792 794 795 796 797 798 799 800 800 801 801 801 800 800 799 798 797 796 795 794 792 791 790 789 788 787
762 765 765 763 763 765 768 771 774 777 780 784 786 788 789 790 791 792 793 794 795 796 797 798 798 799 798 798 798 798 797 796 795 794 792 791 790 788 787 785 785 784
757 762 765 765 764 764 766 769 771 774 778 781 784 787 788 788 789 790 791 792 794 795 796 796 796 797 796 796 796 795 795 793 792 791 789 788 787 786 784 783 781 780
754 757 760 763 764 764 764 766 769 772 775 779 782 785 786 787 787 788 789 790 792 793 794 794 795 795 794 794 793 793 792 791 789 788 787 785 784 783 782 780 779 777
751 753 756 758 761 764 765 766 769 771 773 777 781 783 784 785 786 786 787 789 790 792 792 792 793 793 792 792 791 790 789 788 786 785 783 782 781 780 779 777 776 774
748 751 753 755 759 765 768 769 770 772 774 777 779 781 782 783 784 785 786 787 788 790 790 790 790 790 790 790 789 788 787 785 783 781 779 778 777 776 775 773 772 771
746 748 751 753 758 764 768 769 769 771 774 777 779 781 781 782 783 784 785 786 787 787 787 788 788 788 788 787 786 785 784 782 780 778 775 773 772 771 770 769 768 767
744 746 748 751 755 760 764 766 767 769 772 776 778 780 780 781 782 783 784 785 785 785 785 785 786 786 785 785 784 783 781 778 776 773 771 769 767 766 765 764 764 763
744 744 746 749 753 757 761 764 767 769 772 775 777 778 778 779 781 782 783 783 783 783 783 783 783 783 783 782 781 780 777 775 772 769 766 764 762 761 760 759 759 759
743 744 746 749 753 757 761 765 768 770 773 775 777 776 776 777 779 780 781 782 782 781 781 781 781 781 781 779 778 776 774 772 769 765 762 759 758 756 755 755 755 754
741 743 746 751 755 758 762 765 768 770 772 774 775 775 775 775 777 779 780 781 781 780 779 779 779 778 778 777 775 773 771 768 766 763 759 756 754 752 751 750 750 750
Wind_Speed
25 24 23 22 21 21 20 18 16 14 13 12 11 9 8 7 7 8 7 5 4 5 6 8 9 9 9 8 9 10 11 12 12 12 12 12 12 12 12 12 12 12
27 26 25 23 23 23 22 20 18 16 15 14 12 10 9 9 9 8 7 6 6 7 8 9 9 9 8 8 9 10 11 12 13 13 13 12 12 12 12 12 12 13
28 27 27 25 25 25 23 22 21 18 17 15 13 11 11 11 10 8 8 7 8 9 9 9 9 9 8 8 9 11 12 12 13 13 13 13 13 13 13 13 13 13
31 29 28 27 27 26 24 24 23 21 19 18 15 13 13 12 11 10 10 9 10 9 9 10 10 10 9 9 11 12 12 13 13 13 13 13 13 14 14 14 14 14
33 30 29 29 29 28 26 25 25 23 21 20 17 16 15 15 14 13 12 10 9 8 9 9 9 9 10 11 12 13 14 15 15 14 14 13 13 14 15 16 16 15
35 32 31 30 30 29 28 27 26 25 23 21 20 19 18 17 16 14 12 10 8 8 8 8 8 8 10 11 12 13 15 16 16 15 15 15 15 16 16 17 18 17
36 34 32 31 31 30 29 28 27 26 24 22 21 21 19 18 16 13 11 9 7 7 7 7 7 8 10 11 12 14 15 15 15 15 16 17 18 19 19 19 19 18
37 36 34 33 32 32 31 29 28 26 24 23 22 21 20 18 15 12 10 8 7 7 6 6 7 9 9 10 11 13 13 13 13 14 16 17 18 19 20 20 20 21
37 36 36 35 35 34 33 31 29 26 24 23 23 22 20 18 14 11 9 8 7 6 6 7 8 8 8 9 10 12 13 12 12 13 14 15 16 17 18 18 19 21
37 37 37 37 37 36 35 32 30 27 25 23 23 22 20 16 13 11 10 8 7 7 7 8 8 8 8 10 11 13 14 13 13 13 14 15 16 18 19 19 20 20
37 38 38 39 39 37 35 33 29 26 24 24 23 22 19 15 13 12 10 9 8 8 8 9 9 9 10 11 12 13 13 13 13 14 15 17 19 20 22 23 23 23
38 38 39 40 39 37 34 31 28 25 24 24 23 21 17 15 13 11 10 9 9 9 9 10 10 10 11 12 13 13 13 14 15 16 18 19 21 23 24 25 25 25
39 39 39 39 37 35 32 29 27 25 24 23 22 19 16 15 13 11 10 10 10 10 10 10 10 10 11 12 13 13 14 15 17 18 20 21 23 24 24 24 24 23
40 39 38 37 35 32 30 28 26 25 24 22 20 18 16 14 12 11 11 10 10 10 10 9 10 10 11 12 12 14 15 17 19 20 22 23 24 24 23 23 22 22
40 39 37 34 33 31 29 28 26 24 23 21 19 17 15 13 12 12 11 11 10 10 9 9 9 9 10 11 12 14 17 18 20 22 23 24 24 24 24 23 23 23
27 29 33 33 32 31 29 28 26 23 22 20 19 17 15 14 13 12 11 11 10 9 8 7 7 8 8 11 13 15 18 19 21 22 23 24 25 25 25 24 24 24
21 21 27 30 31 31 29 27 25 23 22 20 18 16 15 14 13 12 11 10 8 7 6 5 6 8 10 13 16 18 19 21 22 23 24 24 24 25 25 25 25 26
23 22 25 27 29 30 29 27 26 24 22 20 18 17 15 14 13 12 10 9 7 6 5 5 7 10 13 16 18 19 20 21 22 24 24 25 25 26 27 27 27 27
25 25 27 28 29 30 29 28 27 25 22 19 18 16 15 14 13 11 10 8 6 4 4 6 9 12 14 17 19 20 20 20 22 24 25 26 27 27 28 28 28 28
26 27 29 30 29 29 29 28 26 23 21 19 17 16 15 14 13 11 9 6 4 3 5 8 10 12 16 19 22 23 23 22 23 25 26 28 28 28 28 28 28 28
28 29 29 25 22 22 24 24 22 20 18 16 15 15 14 13 11 9 7 3 2 4 7 9 11 14 18 22 25 25 25 24 25 26 27 28 29 29 29 29 28 28
30 30 28 25 23 23 23 22 20 18 16 16 15 14 12 10 8 6 3 1 3 6 9 10 12 15 19 24 27 27 26 26 27 27 28 28 29 29 29 30 29 29
30 30 29 29 30 28 24 21 20 19 17 15 14 12 10 8 5 3 1 3 5 7 9 11 13 16 20 25 28 28 26 26 27 28 28 28 29 29 29 30 30 29
30 32 32 32 30 27 24 21 20 19 16 13 11 10 8 6 4 2 4 6 8 8 9 11 14 17 22 26 29 29 27 26 27 28 28 28 29 29 29 29 29 28
31 32 31 29 27 26 25 22 19 17 14 11 9 8 7 5 3 3 5 7 9 10 10 12 15 19 24 28 30 30 27 27 28 28 28 28 29 28 28 27 27 27
35 33 30 28 27 26 23 19 17 15 13 10 8 6 5 4 1 3 6 8 10 11 11 13 16 21 26 29 31 30 28 27 27 28 28 28 28 28 28 29 29 29
Wind_Direction
214 216 218 221 224 229 230 229 229 229 228 227 229 227 224 233 244 248 250 247 259 291 310 315 321 325 329 338 346 352 355 352 353 353 351 351 350 349 349 349 347 343
215 217 220 223 225 229 232 233 234 235 234 232 234 229 225 231 237 238 245 257 277 296 307 313 318 322 328 337 340 344 345 344 346 346 344 345 344 344 344 343 341 337
217 218 220 223 225 228 232 234 236 238 237 234 234 231 229 232 233 236 247 266 284 296 306 314 321 323 327 332 333 335 337 338 341 340 341 342 343 342 342 339 337 334
218 219 221 224 226 229 232 234 235 237 235 233 233 231 232 232 233 240 252 267 281 295 307 313 317 320 325 329 328 328 331 334 336 334 333 335 336 337 336 335 332 328
218 219 221 224 226 229 232 233 234 234 232 231 230 229 231 232 234 242 253 265 277 293 305 311 314 317 322 324 323 324 328 331 332 329 326 326 330 331 330 329 327 325
218 219 221 223 226 228 230 232 232 232 230 229 227 227 228 228 232 240 249 259 275 291 299 305 308 312 315 316 318 322 326 328 329 326 322 322 324 326 327 325 320 319
218 218 220 222 225 227 229 230 229 228 228 226 224 224 224 224 227 235 243 252 268 282 290 295 298 302 307 312 316 320 323 323 324 322 319 321 323 324 327 327 322 317
219 218 219 221 222 224 226 226 226 225 224 222 219 218 218 219 223 229 234 243 256 266 276 282 287 294 301 309 313 315 317 319 322 321 318 318 320 321 323 323 322 318
220 219 219 220 221 222 223 223 223 221 220 218 215 212 212 214 219 222 224 233 243 250 261 270 277 283 290 296 300 304 306 308 310 310 310 312 314 316 318 317 317 315
220 220 219 219 220 221 222 221 219 216 215 214 211 208 208 210 214 215 218 225 232 241 253 259 262 264 272 284 292 297 299 299 301 303 306 310 314 316 317 316 314 311
222 221 219 219 221 220 220 218 214 212 211 210 206 205 206 208 209 210 213 221 230 240 247 248 253 262 274 287 295 296 295 295 298 303 307 310 311 313 313 312 309 305
224 221 220 220 220 218 216 213 209 207 205 204 203 203 205 206 206 208 213 222 230 236 240 246 255 269 283 292 294 292 291 294 299 304 307 309 309 310 310 308 304 299
225 223 221 220 218 216 212 208 203 202 201 200 201 203 204 204 205 209 215 223 230 234 239 249 263 278 288 291 290 290 293 299 304 308 309 309 308 308 307 305 301 298
228 226 222 219 217 214 208 203 199 198 199 199 201 203 205 206 206 209 215 221 228 235 244 257 271 280 284 286 291 299 306 309 311 311 310 309 308 307 306 303 299 297
229 224 220 216 213 209 203 200 197 196 197 199 201 204 205 204 205 209 215 221 227 237 248 259 269 275 284 296 307 312 314 314 313 311 309 308 307 305 303 300 297 296
240 226 217 212 207 203 199 196 195 194 195 198 201 203 202 200 203 210 218 225 230 236 243 252 266 281 297 309 316 318 316 314 311 308 306 304 302 300 298 296 295 293
249 232 219 212 203 199 195 192 191 190 191 195 198 200 200 201 206 211 215 220 221 222 232 253 277 296 308 312 315 315 313 311 307 304 302 300 298 296 295 295 294 292
233 223 217 211 202 196 192 189 187 185 186 192 196 199 201 202 204 204 201 200 201 209 238 273 296 309 317 320 320 319 315 310 305 302 300 298 297 296 295 295 294 292
220 213 210 208 203 197 191 185 183 182 184 190 195 198 200 197 191 187 182 184 198 224 269 302 319 326 329 331 331 328 323 315 308 303 300 297 296 295 295 294 292 291
212 207 204 203 201 195 188 181 179 179 181 188 193 193 190 183 176 174 174 184 214 269 311 325 332 334 337 339 338 334 327 319 311 305 300 297 295 294 293 292 290 289
207 202 198 193 187 183 180 176 175 177 178 181 184 181 177 173 170 172 176 189 270 321 330 333 336 338 341 343 340 335 327 318 311 306 301 297 294 293 292 290 289 288
200 193 186 178 170 171 174 172 170 170 169 169 167 164 163 162 163 170 179 261 325 334 336 336 336 338 341 342 340 335 326 317 311 307 302 298 295 293 291 290 288 286
191 181 172 167 166 168 169 165 161 159 157 158 157 153 151 154 157 155 25 346 336 337 337 332 331 334 338 339 338 334 325 317 311 307 302 298 295 293 291 288 287 284
181 171 162 159 159 158 155 151 149 147 146 148 149 145 145 147 133 63 14 351 337 332 327 323 325 331 336 337 337 333 325 316 311 306 302 299 296 294 291 289 286 284
168 159 151 148 147 144 143 141 139 137 137 139 138 134 136 141 115 27 356 340 330 323 318 317 322 329 334 336 335 332 325 316 311 306 302 300 298 296 293 290 287 285
158 151 145 143 142 139 137 136 135 134 134 134 131 126 131 142 110 348 332 325 321 315 311 313 320 329 335 336 335 330 324 318 311 305 302 300 300 297 295 292 289 287